Weather History for San Diego, CA

Change the Weather History Date:

Wednesday, November 14, 2012

  Actual Average Record
Temperature  
Mean Temperature 61 °F 62 °F  
Max Temperature 71 °F 69 °F 87 °F (1949)
Min Temperature 51 °F 54 °F 39 °F (1916)
Degree Days  
Heating Degree Days 4 4  
Month to date heating degree days 39 38  
Since 1 July heating degree days 43 59  
Cooling Degree Days 0 0  
Month to date cooling degree days 15 11  
Year to date cooling degree days 898 718  
Growing Degree Days 11 (Base 50)    
Moisture  
Dew Point 48 °F    
Average Humidity 53    
Maximum Humidity 83    
Minimum Humidity 22    
Precipitation  
Precipitation 0.00 in 0.04 in 1.12 in (1944)
Month to date precipitation 0.18 0.39  
Year to date precipitation 4.34 8.19  
Since 1 July precipitation 0.88 1.16  
Snow  
Snow 0.00 in - - ()
Month to date snowfall 0.0  
Year to date snowfall 0.0  
Since 1 July snowfall 0.0  
Snow Depth 0.00 in    
Sea Level Pressure  
Sea Level Pressure 30.05 in    
Wind  
Wind Speed 2 mph (West)    
Max Wind Speed 9 mph    
Max Gust Speed 10 mph    
Visibility 8 miles    
Events      
T = Trace of Precipitation, MM = Missing Value Source: NWS Daily Summary

Daily Weather History Graph

Daily Weather History Graph

Search for Another Location

Airport:

Trip Planner

Search our weather history database for the weather conditions in past years. The results will help you decide how hot, cold, wet, or windy it might be!

Date:

Astronomy

Nov. 14, 2012 Rise Set
Actual Time 6:18 AM PST 4:47 PM PST
Civil Twilight 5:52 AM PST 5:13 PM PST
Nautical Twilight 5:22 AM PST 5:43 PM PST
Astronomical Twilight 4:53 AM PST 6:12 PM PST
Moon 7:09 AM PST (11/14) 5:44 PM PST (11/14)
Length of Visible Light 11h 21m
Length of Day
10h 29m
New Moon, 1% of the Moon is Illuminated
Nov 14
New Moon
Nov 20
First Quarter
Nov 28
Full
Dec 6
Last Quarter
Dec 13
New

Hourly Weather History & Observations

Time (PST) Temp. Dew Point Humidity Pressure Visibility Wind Dir Wind Speed Gust Speed Precip Events Conditions
12:51 AM 54.0 °F 48.0 °F 80% 30.05 in 10.0 mi Calm Calm - N/A   Partly Cloudy
1:51 AM 54.0 °F 39.9 °F 59% 30.05 in 10.0 mi Calm Calm - N/A   Partly Cloudy
2:51 AM 53.1 °F 41.0 °F 64% 30.04 in 10.0 mi Calm Calm - N/A   Partly Cloudy
3:51 AM 53.1 °F 39.9 °F 61% 30.03 in 10.0 mi Calm Calm - N/A   Partly Cloudy
4:51 AM 52.0 °F 42.1 °F 69% 30.04 in 10.0 mi Calm Calm - N/A   Partly Cloudy
5:51 AM 52.0 °F 39.0 °F 61% 30.06 in 10.0 mi Calm Calm - N/A   Scattered Clouds
6:51 AM 53.1 °F 43.0 °F 69% 30.08 in 10.0 mi Calm Calm - N/A   Mostly Cloudy
7:51 AM 59.0 °F 36.0 °F 42% 30.09 in 10.0 mi Calm Calm - N/A   Mostly Cloudy
8:51 AM 61.0 °F 48.9 °F 64% 30.09 in 8.0 mi Calm Calm - N/A   Mostly Cloudy
9:51 AM 64.9 °F 48.0 °F 54% 30.08 in 10.0 mi Calm Calm - N/A   Mostly Cloudy
10:51 AM 69.1 °F 36.0 °F 30% 30.06 in 10.0 mi SW 3.5 mph - N/A   Mostly Cloudy
11:51 AM 70.0 °F 28.0 °F 21% 30.05 in 10.0 mi SSW 8.1 mph - N/A   Mostly Cloudy
12:51 PM 69.1 °F 37.0 °F 31% 30.02 in 10.0 mi SSW 6.9 mph - N/A   Mostly Cloudy
1:51 PM 71.1 °F 30.9 °F 23% 30.01 in 10.0 mi SSW 4.6 mph - N/A   Mostly Cloudy
2:51 PM 66.9 °F 53.1 °F 61% 30.01 in 10.0 mi NW 5.8 mph - N/A   Mostly Cloudy
3:51 PM 66.0 °F 54.0 °F 65% 30.01 in 10.0 mi NNW 3.5 mph - N/A   Mostly Cloudy
4:51 PM 64.0 °F 57.0 °F 78% 30.02 in 9.0 mi NW 3.5 mph - N/A   Mostly Cloudy
5:51 PM 63.0 °F 57.0 °F 81% 30.04 in 9.0 mi WNW 4.6 mph - N/A   Mostly Cloudy
6:51 PM 62.1 °F 57.9 °F 86% 30.05 in 7.0 mi Calm Calm - N/A   Mostly Cloudy
7:51 PM 61.0 °F 57.0 °F 87% 30.05 in 7.0 mi Calm Calm - N/A   Mostly Cloudy
8:35 PM 60.8 °F 57.2 °F 88% 30.06 in 4.0 mi Calm Calm - N/A   Mostly Cloudy
8:51 PM 60.1 °F 57.0 °F 90% 30.06 in 3.0 mi ENE 3.5 mph - N/A   Scattered Clouds
9:08 PM 59.0 °F 57.2 °F 94% 30.07 in 2.5 mi Calm Calm - N/A   Scattered Clouds
9:51 PM 59.0 °F 55.9 °F 90% 30.06 in 2.5 mi Calm Calm - N/A   Mostly Cloudy
9:58 PM 59.0 °F 55.4 °F 88% 30.06 in 3.0 mi Calm Calm - N/A   Mostly Cloudy
10:51 PM 59.0 °F 55.9 °F 90% 30.06 in 3.0 mi Calm Calm - N/A   Mostly Cloudy
11:25 PM 59.0 °F 55.4 °F 88% 30.06 in 2.5 mi Calm Calm - N/A   Partly Cloudy
11:51 PM 59.0 °F 55.9 °F 90% 30.06 in 2.5 mi Calm Calm - N/A   Scattered Clouds